Погода Каменское

Погода Каменское : погода сейчас, прогноз погоды и архив. Всё, что Вы хотите узнать о погоде Каменское!

Поиск расширенной информации на нашем сайте:

Другие новости

Новости СМИ2

Главная страница сайта

Новости сайта

03.07.2017

Напоминаем, что на нашем специализированном сайте Метеоцентр.Азия вы можете получить высокодетализированные автоматические прогнозы погоды по пунктам России, СНГ и мира в авиационном формате (включающие направление и скорость ветра, видимость, явления погоды, количество и форму облачности, нижнюю и верхнюю границу облачности).


Погода Каменское - сегодня

Время (UTC), дата Ветер
(°,м/с) 
Видим.   Явления Облачность Т
(°С)
Тd
(°С)
f(%) Тe
(°С)
Pmin
(гПа)
dP
(гПа)
Po
(мм)
O2
(г/м3)
Тmin Tmax R s Состояние
почвы
12 16.09.17 280 (З) 20000 м    8/8 1000 м 
[Sc]
+1 -3.4 72 -1  1015.3  1.6  758  305           
15 16.09.17 250 (З) н/о    н/о 
+1.7 -3.3 69 +1  1016.3  0.9  758  304           
18 16.09.17 290 (З) н/о    н/о 
+1.3 -3.5 70 +1  1017.1  0.8  759  305           
00 17.09.17 080 (В) 20000 м    9/9 1000 м 
[Sc]
+5.6 -4.1 50 +5  1018  -0.2  760  300           
03 17.09.17 250 (З) 20000 м    8/8 1000 м 
[Cu med, cong]
+9.3 -5.9 34 +8  1016.9  -1  759  296           
06 17.09.17 280 (З) 20000 м    9/9 1000 м 
[Sc]
+8.3 -4.2 41 +8  1016.2  -0.7  758  297           
12 17.09.17 280 (З) 20000 м    9/9 1000 м 
[Sc]
+3 -1.8 71 +2  1015  -1.4  757  302           
15 17.09.17 280 (З) н/о    н/о 
+3.8 -1.3 69 +5  1013.6  -1.3  756  301           
18 17.09.17 110 (В) н/о    н/о 
+4 +2 87 +3  1012  -1.6  755  300           
21 17.09.17 тихо ()   20000 м  слаб. ливневой дождь  10/10 300 м кучево-дожд. 
[Cb cap]
+4.4 +3.1 91 +4  1009.8  -2.1  754  298  +2.2      мокрая 
03 18.09.17 250 (З) 20000 м  слаб. ливневой дождь  10/10 300 м кучево-дожд. 
[Cb cap]
+10.1 +8.5 90 +10  1007.3  -1.1  752  291           
09 18.09.17 260 (З) 20000 м  в посл. час ливневой дождь  10/10 300 м 
[St]
+9.7 +8.1 90 +8  1006.6  751  291    +10.2     
12 18.09.17 260 (З) 20000 м  {ливн. осадки}  10/10 600 м 
[Sc]
+9.6 +8.5 93 +8  1006.8  0.2  752  291           
15 18.09.17 260 (З) н/о    н/о 
+8.6 +6.7 88 +7  1008.3  1.4  753  293           
18 18.09.17 320 (СЗ) н/о    н/о 
+5.4 +3.7 89 +6  1010.3  754  297           
21 18.09.17 220 (ЮЗ) 20000 м    3/3 1000 м 
[Sc]
+4.3 +1.7 83 +3  1012.8  2.4  756  300  +3.8    0.7    влажная 
00 19.09.17 220 (ЮЗ) 20000 м    3/3 1000 м 
[Cu hum]
+9.6 +1.2 56 +9  1012.9  0.2  756  294           
03 19.09.17 070 (В) 20000 м    10/10 1000 м 
[Sc]
+8.6 +0.6 57 +7  1013.5  0.2  756  295           
06 19.09.17 350 (С) 20000 м  {дождь}  10/10 1000 м 
[Sc]
+7.1 +1.9 69 +8  1015  1.4  758  297           
09 19.09.17 350 (С) 20000 м  в посл. час дождь  10/10 1000 м 
[Sc]
+4.9 +2 81 +5  1016.9  1.9  759  300    +9.8  0.4     
12 19.09.17 360 (С) 20000 м  {дождь}  10/10 1000 м 
[Sc]
+4.6 +1.8 82 +4  1018.9  760  301           
15 19.09.17 080 (В) н/о    н/о 
+3.8 +1.3 84 +3  1020.3  1.4  761  302           
18 19.09.17 080 (В) н/о    н/о 
+3 +1.2 88 +2  1021.3  762  304           
21 19.09.17 080 (В) 20000 м    10/10 300 м 
[St]
+2.8 +1.4 90 +2  1022.1  0.8  763  304  +2.7        влажная 
00 20.09.17 080 (В) 20000 м    10/10 600 м 
[Sc]
+4.1 +0.8 79 +4  1022.3  0.2  763  303           
Время (UTC), дата Ветер
(°,м/с) 
Видим.   Явления Облачность Т
(°С)
Тd
(°С)
f(%) Тe
(°С)
Pmin
(гПа)
dP
(гПа)
Po
(мм)
O2
(г/м3)
Тmin Tmax R s Состояние
почвы

Для получения пояснительной информации подведите курсор к названию столбца.

ПОГОДА Каменское - архив

Всё, что Вы хотите узнать о погоде Каменское - удобно и подробно!

Выберите нужную дату (начиная с 1 января 2015* года) и нажмите кнопку "Найти".
Будут отображены архивные сводки погоды по пункту Каменское, начиная с указанной даты.


Отображать данные в формате CSV (для использования в таблицах Excel)


Внимание! Наш архив погоды предназначен исключительно для личного некоммерческого использования в познавательных целях. Если Вам необходимы официальные справки о состоянии погоды (для производственных, юридических, коммерческих и т.п. целей), обращайтесь в органы Росгидромета.

*Примечание: данная дата относится к архиву по метеостанциям СССР (Россия, СНГ, Балтия).
Архив по метеостанциям Зарубежной Европы и Азии (кроме Китая) хранится 10 дней, по другим регионам земного шара (Китай, Африка, Америка, Австралия, Океания) - 1 день.

Каменское - район местоположения метеостанции


Название, широта, долгота, высота метеостанции:
Каменское 62.43°ш. 166.08°д. 10 м над ур. моря [Российская Федерация]

Дополнительная информация

В oтличие oт бoльшинства пoгoдных сайтoв мы публикуем пoдрoбную метеoинфoрмацию в детальнoм прoфессиoнальнoм фoрмате.

Характеристики температуры и влажнoсти вoздуха измеряются на высoте 2 м в тени вдали oт зданий и деревьев.
Скoрoсть ветра измеряется на высoте 10 м (на урoвне рoста челoвека скoрoсть ветра ниже в 1.5-2 раза). Если метеoстанция нахoдится в гoрoде или в лесу, тo скoрoсть ветра занижена на 2-4 м/с пo сравнению с oткрытым местoм. Скoрoсть ветра над акватoриями крупных рек и oзёр, а также на вершинах хoлмoв на 2-5 м/с выше, чем в oбычных услoвиях.
Атмoсфернoе давление в разных тoчках местнoсти мoжет значительнo oтличаться oт давления на метеoстанции, в зависимoсти oт услoвий рельефа (при пoдъёме на 10 м давление пoнижается примернo на 1 мм рт.ст.).